[[{"header":{"parameterUnit":"m.s-1","parameterCategory":2,"la1":30.2992,"la2":30.254,"lo1":-89.0895,"lo2":-89.0443,"dy":0.0025,"dx":0.0025,"nx":19,"ny":19,"refTime":"2026-03-20T03:00:00:Z","depth":"0","parameterNumber":2,"parameterNumberName":"U-component_of_CURRENTS"},"data":[0,0,0,0.1347,0.1349,0.1478,0.1479,0.1634,0.1635,0,0,0,0,0,0,0,0,0,0,0,0.1292,0.1292,0.1347,0.1349,0.1478,0.1479,0.1634,0.1635,0,0,0,0,0,0,0,0,0,0,0,0.1292,0.1292,0.1293,0.135,0.1478,0.1479,0.1634,0.1543,0,0,0,0,0,0,0,0,0,0,0.142,0.1369,0.1292,0.1293,0.135,0.1478,0.1479,0.1539,0.1548,0.1568,0,0.1571,0,0.1604,0.1644,0.1645,0,0,0,0.1366,0.1361,0.139,0.1293,0.1351,0.1477,0.1425,0.1544,0.1555,0.1581,0.1574,0.158,0.1607,0.1645,0.1646,0.1737,0.1737,0,0,0.1358,0.1327,0.1382,0.1396,0.1363,0.142,0.1428,0.1551,0.1556,0.1574,0.1584,0.1609,0.1646,0.1647,0.1737,0.1737,0,0,0,0.1327,0.1322,0.135,0.1389,0.1412,0.1424,0.1433,0.1551,0.1558,0.1586,0.1611,0.1647,0.1648,0.1737,0.1737,0.1676,0,0,0,0.1323,0.1303,0.1346,0.1331,0.1409,0.1486,0.1429,0.1549,0.1565,0.161,0.1647,0.1649,0.1737,0.1737,0.1678,0.1639,0,0,0,0.129,0.13,0.1307,0.1328,0.1378,0.1484,0.15,0.1554,0.1579,0.1645,0.165,0.1737,0.1737,0.1679,0.1642,0.1664,0,0,0,0.1267,0.1303,0.1305,0.1317,0.1376,0.1461,0.15,0.1583,0.1639,0.1647,0.1737,0.1737,0.168,0.1644,0.1665,0.1592,0.158,0,0,0.1309,0.1307,0.1304,0.131,0.1347,0.1446,0.1501,0.159,0.1643,0.1699,0.1702,0.1677,0.1642,0.1664,0.1597,0.1585,0,0,0,0.1313,0.1306,0.1323,0.1317,0.1383,0.1448,0.1549,0.1596,0.1659,0.1673,0.1696,0.1676,0.1692,0.1651,0.1642,0.16,0.1738,0.1738,0.1738,0.1286,0.1279,0.1275,0.1291,0.1343,0.1455,0.1519,0.1595,0.1647,0.1665,0.1641,0.1632,0.1587,0.1579,0.1537,0.1665,0.1664,0.1664,0.1664,0.1299,0.1269,0.123,0.1252,0.1277,0.133,0.1459,0.1518,0.1591,0.1616,0.1635,0.1605,0.1566,0.1524,0.1661,0.1661,0.1662,0.1662,0.1662,0.1281,0.1272,0.1263,0.1238,0.1198,0.1261,0.1312,0.1425,0.1521,0.154,0.1535,0.1536,0.149,0.1557,0.1557,0.1557,0.1557,0.1556,0.1556,0.1286,0.1276,0.1271,0.1226,0.1167,0.1156,0.1249,0.1325,0.1415,0.1461,0.1462,0.1473,0.16,0.1594,0.1555,0.1555,0.1555,0.1556,0.1556,0.1284,0.1313,0.1305,0.1267,0.1143,0.1071,0.1164,0.1248,0.1336,0.1354,0.1342,0.1446,0.1467,0.1474,0.1466,0.1397,0.1397,0.1397,0.1397,0.1278,0.1291,0.1284,0.123,0.114,0.1047,0.1025,0.1072,0.1178,0.1189,0.1254,0.124,0.1248,0.1257,0.1269,0.1258,0.1137,0.1137,0.1137,0.1252,0.1269,0.1237,0.1217,0.1106,0.1007,0.0892,0.0838,0.099,0.1126,0.1209,0.122,0.1203,0.122,0.124,0.126,0.1245,0,0]},{"header":{"parameterUnit":"m.s-1","parameterCategory":2,"la1":30.2992,"la2":30.254,"lo1":-89.0895,"lo2":-89.0443,"dy":0.0025,"dx":0.0025,"nx":19,"ny":19,"refTime":"2026-03-20T03:00:00:Z","depth":"0","parameterNumber":3,"parameterNumberName":"V-component_of_CURRENTS"},"data":[0,0,0,-0.0093,-0.0091,0.0016,0.0017,0.0247,0.025,0,0,0,0,0,0,0,0,0,0,0,-0.0147,-0.0147,-0.0093,-0.0091,0.0016,0.0017,0.0247,0.025,0,0,0,0,0,0,0,0,0,0,0,-0.0147,-0.0147,-0.0147,-0.009,0.0016,0.0017,0.0247,0.0145,0,0,0,0,0,0,0,0,0,0,0.0031,0.0016,-0.0147,-0.0147,-0.009,0.0016,0.0017,0.014,0.0152,0.0222,0,0.0216,0,0.0244,0.0266,0.0267,0,0,0,-0.0079,0.0006,-0.0017,-0.0147,-0.0089,0.0016,-0.0029,0.0146,0.016,0.0239,0.0219,0.0228,0.0248,0.0268,0.0269,0.0459,0.0459,0,0,-0.0085,-0.0066,-0.0028,-0.001,-0.0087,-0.0032,-0.0026,0.0153,0.0191,0.022,0.0234,0.0252,0.0269,0.0271,0.0459,0.0459,0,0,0,-0.011,-0.0069,-0.0098,-0.0019,-0.0004,-0.0029,-0.0022,0.0183,0.0157,0.0236,0.0255,0.0271,0.0274,0.0458,0.0459,0.0436,0,0,0,-0.0113,-0.0086,-0.0101,-0.0079,-0.0009,0.0094,0.0005,0.0144,0.0166,0.0253,0.0271,0.0276,0.0458,0.0458,0.0436,0.0418,0,0,0,-0.0147,-0.0086,-0.0097,-0.0081,-0.0044,0.0089,0.0077,0.0149,0.0178,0.0267,0.0277,0.0458,0.0458,0.0436,0.0419,0.0429,0,0,0,-0.0101,-0.0097,-0.0096,-0.0056,-0.0046,0.0031,0.0076,0.018,0.0256,0.0272,0.0458,0.0459,0.0436,0.0419,0.0429,0.0412,0.041,0,0,-0.0079,-0.0093,-0.0072,-0.0069,-0.0009,0.0019,0.0125,0.024,0.0286,0.0408,0.0412,0.0436,0.0419,0.0429,0.0444,0.0441,0,0,0,-0.0052,-0.0045,-0.0017,0.002,0.0064,0.0124,0.0222,0.0269,0.0363,0.033,0.0454,0.0444,0.0451,0.0442,0.0439,0.0467,0.0461,0.0461,0.0461,-0.0037,-0.0019,0.004,0.0071,0.012,0.0217,0.0274,0.0348,0.0398,0.0426,0.0439,0.0448,0.0438,0.0436,0.0465,0.0459,0.0459,0.0459,0.0459,-0.0018,0.0017,0.0058,0.0108,0.0152,0.0221,0.0329,0.0363,0.0437,0.0451,0.0459,0.0434,0.0432,0.0464,0.0458,0.0458,0.0458,0.0458,0.0458,-0.0021,0.0008,0.0036,0.0099,0.0149,0.0213,0.0281,0.0348,0.0409,0.0421,0.0421,0.0422,0.0439,0.0423,0.0423,0.0423,0.0423,0.0423,0.0423,-0.0036,0.001,0.0044,0.0095,0.0118,0.016,0.0251,0.0301,0.0361,0.0395,0.0396,0.0448,0.0437,0.0426,0.0423,0.0423,0.0423,0.0423,0.0423,-0.0005,-0.0001,0.0059,0.008,0.0135,0.0137,0.0205,0.0275,0.0327,0.0347,0.0418,0.0396,0.0404,0.0406,0.0394,0.0383,0.0383,0.0383,0.0383,0.0006,0.0012,0.0095,0.0132,0.0157,0.0147,0.0161,0.0218,0.0324,0.0374,0.0418,0.0423,0.0424,0.0433,0.0434,0.0424,0.0421,0.0421,0.0421,0.004,0.0057,0.011,0.0151,0.0164,0.015,0.0118,0.0163,0.0326,0.0427,0.0461,0.0459,0.0472,0.047,0.0489,0.0489,0.0474,0,0]}],[{"header":{"parameterUnit":"m.s-1","parameterCategory":2,"la1":30.2992,"la2":30.254,"lo1":-89.0895,"lo2":-89.0443,"dy":0.0025,"dx":0.0025,"nx":19,"ny":19,"refTime":"2026-03-20T03:00:00:Z","depth":"2","parameterNumber":2,"parameterNumberName":"U-component_of_CURRENTS"},"data":[0,0,0,-0.0108,-0.0108,-0.022,-0.0222,0.0272,0.0279,0,0,0,0,0,0,0,0,0,0,0,-0.0087,-0.0086,-0.0109,-0.0108,-0.022,-0.0222,0.0271,0.0279,0,0,0,0,0,0,0,0,0,0,0,-0.0088,-0.0087,-0.0085,-0.0108,-0.022,-0.0222,0.0269,0.0175,0,0,0,0,0,0,0,0,0,0,0.0195,0.0289,-0.0087,-0.0085,-0.0108,-0.0219,-0.0222,0.0162,0.0181,0.0532,0,0.0548,0,0.0496,0.0335,0.0338,0,0,0,-0.0195,0.0272,0.0135,-0.0085,-0.0108,-0.0219,-0.0194,0.0167,0.0189,0.0561,0.0554,0.0568,0.0504,0.034,0.0344,0.0891,0.0891,0,0,-0.0188,0.0007,0.0117,0.0149,-0.0071,-0.019,-0.0196,0.0172,0.031,0.0555,0.0577,0.0512,0.0346,0.0352,0.0891,0.0891,0,0,0,-0.0112,0.0015,-0.0148,0.0133,0.0101,-0.0191,-0.0199,0.029,0.0206,0.0581,0.0518,0.035,0.0361,0.0891,0.0891,0.0867,0,0,0,-0.0113,0.006,-0.0143,-0.0013,0.0091,0.0149,-0.0084,0.0176,0.0215,0.0516,0.0351,0.0369,0.0892,0.0891,0.0868,0.0809,0,0,0,-0.0094,0.0069,0.004,-0.0005,-0.0029,0.0135,0.0068,0.0176,0.0189,0.0338,0.0371,0.0892,0.0891,0.0869,0.0813,0.0912,0,0,0,0.0116,0.002,0.005,0.0102,-0.0027,-0.0167,0.0061,0.0089,0.019,0.0355,0.0892,0.0891,0.0869,0.0815,0.0912,0.0815,0.0808,0,0,0.0027,0.0022,0.0054,0.007,-0.0051,-0.0162,-0.0142,0.0118,0.032,0.0805,0.0811,0.0867,0.0813,0.0912,0.0784,0.0777,0,0,0,0.005,0.0078,0.006,0.0101,-0.0027,-0.0103,0.0009,0.0124,0.0457,0.0399,0.0863,0.0828,0.0893,0.0834,0.0829,0.0888,0.0888,0.0888,0.0889,0.0119,0.0108,0.0133,0.0083,0.002,-0.0011,0.0013,0.022,0.0449,0.0573,0.0807,0.0851,0.0785,0.0781,0.0832,0.0831,0.0831,0.0831,0.0831,0.003,0.0117,0.017,0.0161,0.0119,0.0126,0.0191,0.0317,0.0638,0.0727,0.0797,0.0805,0.0773,0.0829,0.083,0.083,0.083,0.083,0.083,0.0115,0.0126,0.0216,0.0225,0.0274,0.0237,0.0312,0.0459,0.0634,0.0723,0.0802,0.0801,0.0865,0.0851,0.0852,0.0852,0.0852,0.0852,0.0852,0.0143,0.0184,0.0297,0.0319,0.0358,0.0393,0.0447,0.0525,0.0648,0.0735,0.0736,0.0859,0.0859,0.0868,0.0855,0.0854,0.0854,0.0854,0.0853,0.0205,0.0272,0.0355,0.0441,0.0507,0.0492,0.0513,0.0556,0.0667,0.0699,0.0763,0.0764,0.0776,0.0779,0.0786,0.0753,0.0753,0.0753,0.0753,0.0248,0.0302,0.0456,0.0553,0.0575,0.0552,0.0536,0.0468,0.0518,0.0486,0.0497,0.0433,0.0444,0.0435,0.0446,0.0445,0.0324,0.0323,0.0322,0.0242,0.0346,0.0442,0.0627,0.0624,0.0592,0.0507,0.0373,0.0264,0.0303,0.0394,0.073,0.0665,0.067,0.0682,0.0689,0.0699,0,0]},{"header":{"parameterUnit":"m.s-1","parameterCategory":2,"la1":30.2992,"la2":30.254,"lo1":-89.0895,"lo2":-89.0443,"dy":0.0025,"dx":0.0025,"nx":19,"ny":19,"refTime":"2026-03-20T03:00:00:Z","depth":"2","parameterNumber":3,"parameterNumberName":"V-component_of_CURRENTS"},"data":[0,0,0,-0.0383,-0.0385,-0.0426,-0.0426,-0.0211,-0.0209,0,0,0,0,0,0,0,0,0,0,0,-0.0357,-0.0358,-0.0382,-0.0385,-0.0426,-0.0426,-0.0211,-0.0209,0,0,0,0,0,0,0,0,0,0,0,-0.0356,-0.0357,-0.0359,-0.0386,-0.0426,-0.0426,-0.0212,-0.0237,0,0,0,0,0,0,0,0,0,0,-0.0226,-0.0219,-0.0357,-0.0359,-0.0386,-0.0426,-0.0426,-0.0241,-0.0235,-0.0129,0,-0.0167,0,-0.0201,-0.0192,-0.0191,0,0,0,-0.0342,-0.0224,-0.0282,-0.0359,-0.0387,-0.0427,-0.0396,-0.024,-0.0233,-0.0121,-0.0165,-0.0159,-0.0197,-0.0191,-0.019,0.0015,0.0015,0,0,-0.034,-0.0302,-0.0288,-0.028,-0.0432,-0.0395,-0.0398,-0.0238,-0.021,-0.0164,-0.0155,-0.0194,-0.0189,-0.0187,0.0014,0.0015,0,0,0,-0.0362,-0.03,-0.0366,-0.0286,-0.0326,-0.0397,-0.04,-0.0217,-0.0254,-0.0154,-0.0191,-0.0188,-0.0185,0.0014,0.0015,-0.0003,0,0,0,-0.0359,-0.0318,-0.0365,-0.0334,-0.0332,-0.03,-0.0381,-0.0265,-0.025,-0.0192,-0.0188,-0.0182,0.0014,0.0014,-0.0003,-0.0045,0,0,0,-0.0349,-0.0314,-0.0343,-0.0333,-0.0379,-0.0306,-0.0331,-0.0263,-0.0272,-0.0191,-0.0182,0.0013,0.0014,-0.0003,-0.0044,0.0018,0,0,0,-0.0274,-0.0316,-0.0342,-0.0358,-0.038,-0.0413,-0.0333,-0.0321,-0.0265,-0.0186,0.0014,0.0015,-0.0004,-0.0044,0.0017,0.0048,0.0053,0,0,-0.0293,-0.0316,-0.0323,-0.035,-0.0397,-0.0402,-0.0377,-0.0283,-0.02,-0.0012,-0.001,-0.0003,-0.0044,0.0018,0.0101,0.0105,0,0,0,-0.0304,-0.0319,-0.0341,-0.0353,-0.0389,-0.0408,-0.035,-0.028,-0.013,-0.0173,0.0021,-0.0005,0.0035,0.0053,0.0057,0.0019,0.0019,0.0019,0.0019,-0.0325,-0.0316,-0.0316,-0.034,-0.0359,-0.0369,-0.0339,-0.0217,-0.0137,-0.0073,0.0,0.0054,0.0073,0.0076,0.0041,0.0041,0.0041,0.0041,0.0041,-0.0353,-0.0335,-0.0292,-0.0291,-0.0306,-0.029,-0.024,-0.0198,-0.0039,-0.0001,0.0043,0.0056,0.0079,0.004,0.004,0.004,0.004,0.004,0.004,-0.037,-0.0349,-0.0324,-0.027,-0.0244,-0.0252,-0.0196,-0.0134,-0.0044,-0.0011,0.0087,0.0088,0.004,0.0058,0.0058,0.0058,0.0059,0.0059,0.0059,-0.0406,-0.0375,-0.0303,-0.025,-0.0221,-0.0187,-0.0152,-0.0098,0.0007,0.0056,0.0058,0.006,0.006,0.0043,0.006,0.006,0.006,0.006,0.006,-0.0406,-0.0403,-0.0307,-0.0247,-0.0155,-0.0141,-0.0107,-0.0018,0.0055,0.0105,0.0118,0.0116,0.013,0.0128,0.0114,0.0148,0.0148,0.0148,0.0148,-0.0432,-0.0399,-0.0288,-0.0183,-0.0116,-0.0109,-0.006,-0.001,0.0071,0.01,0.0101,0.0087,0.0086,0.0096,0.0095,0.008,0.0105,0.0105,0.0105,-0.0426,-0.0382,-0.028,-0.0142,-0.009,-0.0079,-0.0056,0.0,0.0076,0.0097,0.0037,0.0157,0.0141,0.0137,0.0156,0.0153,0.013,0,0]}],[{"header":{"parameterUnit":"m.s-1","parameterCategory":2,"la1":30.2992,"la2":30.254,"lo1":-89.0895,"lo2":-89.0443,"dy":0.0025,"dx":0.0025,"nx":19,"ny":19,"refTime":"2026-03-20T03:00:00:Z","depth":"4","parameterNumber":2,"parameterNumberName":"U-component_of_CURRENTS"},"data":[0,0,0,-0.0791,-0.0791,-0.0819,-0.0819,-0.1006,-0.1008,0,0,0,0,0,0,0,0,0,0,0,-0.0784,-0.0784,-0.0791,-0.0791,-0.0819,-0.0819,-0.1006,-0.1008,0,0,0,0,0,0,0,0,0,0,0,-0.0784,-0.0784,-0.0784,-0.0791,-0.0819,-0.0819,-0.1005,-0.095,0,0,0,0,0,0,0,0,0,0,-0.0906,-0.0899,-0.0784,-0.0784,-0.0791,-0.0819,-0.0819,-0.0946,-0.0954,-0.1032,0,-0.1024,0,-0.1017,-0.1023,-0.1023,0,0,0,-0.0806,-0.0892,-0.0871,-0.0784,-0.0791,-0.0819,-0.0811,-0.0949,-0.0958,-0.1043,-0.1026,-0.1032,-0.102,-0.1024,-0.1025,-0.1273,-0.1274,0,0,-0.0804,-0.0826,-0.0864,-0.0875,-0.0787,-0.081,-0.0811,-0.0953,-0.098,-0.1027,-0.1036,-0.1023,-0.1025,-0.1027,-0.1272,-0.1273,0,0,0,-0.079,-0.0826,-0.0798,-0.0869,-0.086,-0.081,-0.0812,-0.0974,-0.0955,-0.1038,-0.1026,-0.1027,-0.1029,-0.1271,-0.1272,-0.1344,0,0,0,-0.079,-0.0815,-0.0797,-0.0816,-0.0856,-0.0903,-0.083,-0.0945,-0.096,-0.1025,-0.1027,-0.1032,-0.127,-0.1272,-0.1339,-0.1361,0,0,0,-0.0785,-0.0816,-0.0807,-0.0816,-0.0817,-0.0899,-0.0891,-0.0947,-0.0954,-0.1024,-0.1032,-0.1269,-0.1271,-0.1335,-0.1355,-0.1392,0,0,0,-0.0822,-0.0806,-0.0808,-0.0807,-0.0816,-0.0846,-0.0889,-0.0958,-0.1018,-0.1028,-0.127,-0.1272,-0.1334,-0.1351,-0.1389,-0.0966,0,0,0,-0.0812,-0.0806,-0.0802,-0.0804,-0.0813,-0.0844,-0.091,-0.1013,-0.1089,-0.1234,-0.1238,-0.1341,-0.1354,-0.1392,-0.1123,0,0,0,0,-0.0806,-0.0791,-0.0793,-0.0813,-0.0844,-0.0892,-0.0971,-0.1066,-0.1247,-0.1132,-0.1374,-0.138,-0.1401,-0.1145,-0.1285,-0.1285,-0.1284,-0.1284,-0.1284,-0.0759,-0.0788,-0.0808,-0.0827,-0.0861,-0.0968,-0.1062,-0.1218,-0.1273,-0.1395,-0.1463,-0.1574,-0.131,-0.1496,-0.1496,-0.1497,-0.1497,-0.1497,-0.1497,-0.0709,-0.0742,-0.081,-0.0855,-0.0945,-0.1063,-0.1204,-0.1301,-0.1538,-0.1561,-0.1578,-0.1269,-0.1505,-0.1504,-0.1503,-0.1502,-0.1501,-0.1501,-0.15,-0.0693,-0.0728,-0.0797,-0.0911,-0.1082,-0.1167,-0.1227,-0.1436,-0.1605,-0.1688,-0.1414,-0.1624,-0.1587,-0.1711,-0.1711,-0.1711,-0.1712,-0.1712,-0.1712,-0.0676,-0.0743,-0.0814,-0.0961,-0.1067,-0.116,-0.1315,-0.1288,-0.1455,-0.1451,-0.1722,-0.1645,-0.1638,-0.1601,-0.1717,-0.1716,-0.1715,-0.1715,-0.1715,-0.0627,-0.07,-0.0791,-0.0864,-0.0968,-0.101,-0.1086,-0.0994,-0.1026,-0.1026,-0.1306,-0.1325,-0.1254,-0.1257,-0.1202,-0.1205,-0.12,-0.1195,0,-0.0593,-0.0623,-0.0716,-0.0731,-0.071,-0.0816,-0.0585,-0.0578,-0.0841,-0.0926,-0.1096,-0.1425,-0.1434,-0.1357,-0.1352,-0.1288,0,0,0,-0.0514,-0.0581,-0.0592,-0.0629,-0.0584,-0.0476,-0.0522,-0.0498,-0.0874,-0.0592,-0.1068,-0.1101,-0.1105,-0.1731,-0.1667,-0.1658,-0.1594,0,0]},{"header":{"parameterUnit":"m.s-1","parameterCategory":2,"la1":30.2992,"la2":30.254,"lo1":-89.0895,"lo2":-89.0443,"dy":0.0025,"dx":0.0025,"nx":19,"ny":19,"refTime":"2026-03-20T03:00:00:Z","depth":"4","parameterNumber":3,"parameterNumberName":"V-component_of_CURRENTS"},"data":[0,0,0,0.0104,0.0102,-0.0034,-0.0035,-0.0081,-0.0081,0,0,0,0,0,0,0,0,0,0,0,0.0136,0.0135,0.0104,0.0101,-0.0034,-0.0035,-0.0081,-0.0081,0,0,0,0,0,0,0,0,0,0,0,0.0137,0.0136,0.0135,0.0101,-0.0034,-0.0035,-0.0081,-0.0015,0,0,0,0,0,0,0,0,0,0,0.0099,0.0098,0.0136,0.0135,0.01,-0.0034,-0.0035,-0.0014,-0.0019,0.0022,0,-0.0004,0,-0.0025,-0.008,-0.008,0,0,0,0.0083,0.0102,0.0092,0.0134,0.0099,-0.0033,0.0022,-0.0018,-0.0024,0.0016,-0.0005,-0.0007,-0.0026,-0.008,-0.0079,-0.0093,-0.0093,0,0,0.009,0.009,0.0095,0.0088,0.0061,0.0026,0.0018,-0.0023,-0.0042,-0.0005,-0.0009,-0.0027,-0.0079,-0.0079,-0.0093,-0.0093,0,0,0,0.0124,0.0095,0.0081,0.009,0.0065,0.0023,0.0013,-0.0042,-0.004,-0.0009,-0.0027,-0.0079,-0.0079,-0.0092,-0.0093,-0.0136,0,0,0,0.0128,0.0117,0.0085,0.008,0.0065,-0.0011,-0.0005,-0.0038,-0.0043,-0.0027,-0.0079,-0.0079,-0.0092,-0.0093,-0.0134,-0.0185,0,0,0,0.0143,0.0118,0.0107,0.0081,0.0035,-0.0011,-0.0015,-0.0041,-0.0051,-0.008,-0.0079,-0.0092,-0.0093,-0.0132,-0.0181,-0.0114,0,0,0,0.0143,0.0088,0.0106,0.0015,0.0037,-0.0055,-0.0016,-0.0083,-0.0115,-0.0079,-0.0092,-0.0093,-0.0132,-0.0178,-0.0113,-0.0128,0,0,0,0.0075,0.0079,0.0021,0.0035,-0.008,-0.0037,-0.0139,-0.015,-0.0104,-0.0071,-0.0073,-0.0135,-0.018,-0.0113,-0.0173,0,0,0,0,-0.0001,-0.0037,-0.0074,-0.0142,-0.0179,-0.0208,-0.0206,-0.0186,-0.0164,-0.0122,-0.0138,-0.0166,-0.0121,-0.0129,-0.0097,-0.0097,-0.0096,-0.0096,-0.0096,-0.0072,-0.0117,-0.0221,-0.0267,-0.0307,-0.0325,-0.0336,-0.0293,-0.0227,-0.021,-0.0202,-0.0192,-0.0204,-0.0186,-0.0186,-0.0187,-0.0187,-0.0187,-0.0187,-0.0186,-0.0255,-0.0305,-0.0405,-0.0419,-0.0454,-0.043,-0.038,-0.0301,-0.0265,-0.0215,-0.0179,-0.0191,-0.019,-0.019,-0.0189,-0.0189,-0.0189,-0.0188,-0.0222,-0.0265,-0.0326,-0.0463,-0.0513,-0.0516,-0.0517,-0.0475,-0.0348,-0.0319,-0.0219,-0.0202,-0.0192,-0.023,-0.023,-0.023,-0.023,-0.023,-0.023,-0.0232,-0.0303,-0.0402,-0.0516,-0.0561,-0.0579,-0.056,-0.0515,-0.0411,-0.029,-0.0288,-0.0205,-0.0204,-0.0193,-0.0229,-0.0229,-0.0229,-0.0229,-0.0229,-0.0306,-0.0316,-0.0464,-0.0536,-0.0629,-0.0612,-0.0616,-0.0512,-0.0421,-0.0323,-0.0247,-0.0246,-0.0219,-0.0216,-0.0205,-0.0246,-0.0246,-0.0247,0,-0.0329,-0.0355,-0.0517,-0.0605,-0.0641,-0.0622,-0.0524,-0.047,-0.0355,-0.0303,-0.0368,-0.0283,-0.0281,-0.0253,-0.0251,-0.0241,0,0,0,-0.039,-0.0421,-0.0517,-0.0593,-0.0622,-0.0507,-0.0477,-0.0433,-0.0359,-0.0373,-0.0254,-0.0252,-0.0378,-0.0226,-0.0181,-0.018,-0.016,0,0]}]]